Regional Weather Roundup
Issued by NWS

Home | Current Version | Previous Version | Text Only | Print | Product List | Glossary On
Versions: 1 2 3 4 5 6 7 8 9 10 11 12 13 14 15 16 17 18 19 20 21 22 23 24 25 26 27 28
000
ASUS46 KPQR 250010
RWROR

OREGON REGIONAL WEATHER ROUNDUP
NATIONAL WEATHER SERVICE PORTLAND OR
500 PM PDT THU APR 24 2014

NOTE: "FAIR" INDICATES FEW OR NO CLOUDS BELOW 12,000 FEET WITH
NO SIGNIFICANT WEATHER AND/OR OBSTRUCTIONS TO VISIBILITY.

ORZ001>013-250100-
NORTHWEST OREGON


CITY           SKY/WX    TMP DP  RH WIND       PRES   REMARKS
ASTORIA        PTSUNNY   52  42  69 SW10G20   29.91R
6HR MIN TEMP:  50; 6HR MAX TEMP:  56; 6HR PCP:  0.01;

NEWPORT        CLOUDY    54  45  71 SW10      29.99F
PORTLAND       PTSUNNY   57  39  51 SW9       29.92S
6HR MIN TEMP:  50; 6HR MAX TEMP:  58; 6HR PCP:  0.04;

VANCOUVER WA   PTSUNNY   57  37  47 W14G20    29.91S
6HR MIN TEMP:  49; 6HR MAX TEMP:  59; 6HR PCP:  0.07;

SCAPPOOSE      PTSUNNY   56  38  50 W13G23    29.91R
6HR MIN TEMP:  53; 6HR MAX TEMP:  59; 6HR PCP: TRACE;

HILLSBORO      PTSUNNY   54  40  59 W13       29.91R
6HR MIN TEMP:  52; 6HR MAX TEMP:  58; 6HR PCP:  0.02;

AURORA         PTSUNNY   55  43  63 SW12G20   29.94R
6HR MIN TEMP:  48; 6HR MAX TEMP:  57; 6HR PCP:  0.12;

MCMINNVILLE    PTSUNNY   56  43  61 SW9       29.94S
6HR MIN TEMP:  52; 6HR MAX TEMP:  58; 6HR PCP: TRACE;

SALEM          PTSUNNY   57  39  51 SW12      29.93F
6HR MIN TEMP:  54; 6HR MAX TEMP:  61; 6HR PCP: TRACE;

CORVALLIS      PTSUNNY   55  41  58 SW14      29.96S
EUGENE         PTSUNNY   58  40  51 W14G20    29.96S
6HR MIN TEMP:  52; 6HR MAX TEMP:  59; 6HR PCP:  0.01;

$$

ORZ021-028-250100-
SOUTHWEST OREGON


CITY           SKY/WX    TMP DP  RH WIND       PRES   REMARKS
NORTH BEND     CLOUDY    54  45  71 W12       30.00S
6HR MIN TEMP:  52; 6HR MAX TEMP:  57; 6HR PCP:  0.01;

BROOKINGS      CLOUDY    53  49  86 VRB3      30.03F
ROSEBURG       CLOUDY    58  40  51 VRB6      29.95S
6HR MIN TEMP:  56; 6HR MAX TEMP:  61; 6HR PCP: TRACE;

SEXTON SUMMIT  CLOUDY    41  38  89 VRB6      29.93S
6HR MIN TEMP:  40; 6HR MAX TEMP:  44; 6HR PCP: TRACE;

MEDFORD        CLOUDY    55  47  74 W12       29.93S
6HR MIN TEMP:  54; 6HR MAX TEMP:  62; 6HR PCP:  0.06;

$$

ORZ009-041-250100-
COLUMBIA GORGE


CITY           SKY/WX    TMP DP  RH WIND       PRES   REMARKS
TROUTDALE      CLOUDY    58  40  51 SW13      29.90F
6HR MIN TEMP:  49; 6HR MAX TEMP:  59; 6HR PCP:  0.13;

THE DALLES     MOSUNNY   57  41  55 NW23G37   29.86R
6HR MIN TEMP:  55; 6HR MAX TEMP:  63;

$$

ORZ029>031-042>050-061>064-250100-
EASTERN OREGON


CITY           SKY/WX    TMP DP  RH WIND       PRES   REMARKS
REDMOND        PTSUNNY   56  29  35 W8        29.84R
6HR MIN TEMP:  45; 6HR MAX TEMP:  61; 6HR PCP:  0.01;

BEND           PTCLDY    52  32  46 SW8       29.86S
KLAMATH FALLS  PTSUNNY   54  32  43 SW17G32   29.88S
6HR MIN TEMP:  48; 6HR MAX TEMP:  58; 6HR PCP:  0.02;

LAKEVIEW       CLOUDY    46  36  66 W10       29.93R
HERMISTON      PTSUNNY   65  37  35 W12G20    29.80F
6HR MIN TEMP:  59; 6HR MAX TEMP:  67;

PENDLETON      CLOUDY    57  44  62 W13       29.82S
6HR MIN TEMP:  51; 6HR MAX TEMP:  63; 6HR PCP:  0.08;

JOHN DAY       LGT RAIN  48  43  81 SE5       29.87S
MEACHAM        PTSUNNY   49  39  68 CALM      29.84S
6HR MIN TEMP:  41; 6HR MAX TEMP:  54; 6HR PCP:  0.21;

LA GRANDE      PTSUNNY   52  37  58 SE15      29.85F
6HR MIN TEMP:  46; 6HR MAX TEMP:  59; 6HR PCP:  0.08;

BAKER CITY     CLOUDY    49  40  71 NE12      29.88R
6HR MIN TEMP:  45; 6HR MAX TEMP:  58; 6HR PCP:  0.11;

BURNS          CLOUDY    47  41  80 W9        29.89F
6HR MIN TEMP:  44; 6HR MAX TEMP:  60; 6HR PCP:  0.08;

ROME             N/A     57  30  35 SW21G38   29.85S
6HR MIN TEMP:  56; 6HR MAX TEMP:  64;

ONTARIO        LGT RAIN  56  47  71 S13       29.87R
6HR MIN TEMP:  48; 6HR MAX TEMP:  63; 6HR PCP:  0.37;

$$



USA.gov is the U.S. government's official web portal to all federal, state and local government web resources and services.